Ana Sayfa
METAR-TAF:

METAR-TAF

Havaalanları :

Ontario Municipal Airport

Ontario, Oregon, Amerika Birleşik Devletleri

Enlem: 44-01-10N, Boylam: 117-00-35W, yükseklik: 667 m

Güncel hava durumu gözlemi

Rapor saat 12:53 UTC de 1 saat ve 26 dakika önce yapıldı.
Sakin rüzgar
Sıcaklık -3°C
Nem 86%
Basınç 1023 hPa
Görüş mesafesi: 16.1 km
Açık gökyüzü

METAR: KONO 141253Z AUTO 00000KT 10SM CLR M03/M05 A3021 RMK AO2 SLP246 T10281050

Saat: 07:19 (14:19 UTC)


TAF: eksik

4.000'den fazla havaalanı için hava durumu gözlemleri ve tahminleri (METAR ve TAF raporları).

Kullanılabilir istasyonlar harita üzerinde sarı ve kırmızı noktalarla gösterilir.

İstasyonun adını görmek için fareyi noktanın üzerinde gezdirin.

Sonrasında hava gözlem ve tahminlerini görmek için tıklayın.

Haritayı değiştirmek için: yaklaştırmak için siyah artı işaretli yeşil düğmeye ve uzaklaştırmak için de eksi işaretli düğmeye hızla tıklayın; bitişik haritalar için yeşil okları kullanın.


METAR-TAF: